CAPE
1200 1560 1596 1588 1683 1894 1598 1814 1349 1226 995 2005 1716 1870 1876 2226 1376 1512 2382 2148 1889 2602 2710 2611 2479 2469 2030 2494 1703 2964 3524 3045 3072 3776 3974 4048 3978 3607 3511 3895 3898 3688 3887 3572 2734 2734 3636 3588 3479 3568 3772 3726 3588 3010 2301 2705 3409 2793 3580 4215 3546 4203 3712 3682 3433 3658 4344 3892 3594 3106 2556 2161 1761 2385 2627 2550 2166 2851 1705 1844 2557 2062 1681 1220 751
1212 1512 1508 1286 836 1097 1545 1426 1279 1208 1095 851 1335 1335 1485 2040 1571 1686 1459 1929 1781 1786 2174 2058 2474 2531 2285 2036 2465 2847 3200 3465 2433 2970 3536 3708 3438 2685 2977 4017 4159 3961 3763 3637 3490 2816 3067 3905 3762 3319 3799 3457 2744 2116 2078 1715 2088 2080 3282 2508 3670 3855 4044 3806 3912 4044 3790 3898 4180 4000 3024 2499 2218 3070 2472 2450 2298 2428 2118 1717 1227 982 909 827 438
1507 1496 1313 1072 1176 919 1116 1318 1219 1190 930 738 783 846 1054 1348 1832 1648 1391 1476 1736 1707 1859 1870 2703 2986 2916 2690 3024 2828 3066 2727 2671 2778 3218 3564 3222 2483 2184 3686 3950 3664 3210 3392 3272 3360 3194 3373 3214 3172 2157 2708 3156 2374 1865 1491 2127 2626 2181 2444 3488 3514 4441 5302 4760 4640 4259 4096 3995 3162 2781 3268 2877 2673 2714 2550 2333 1956 2544 1926 802 535 572 943 742
1144 1445 1594 1387 515 674 898 768 916 868 670 618 584 588 668 944 1675 1772 1673 1393 1427 2162 1845 2325 3423 3557 3078 3014 2835 2870 2822 3002 2712 2699 3234 3379 3226 3260 3382 3295 3226 3213 3052 2814 2498 2915 2698 3139 2580 2426 2586 3036 3166 3299 3211 2249 2507 4653 2846 3518 3565 3314 4096 3443 4638 4590 4173 4029 4271 3746 3485 3336 3212 2796 2362 1775 1748 2194 1986 1556 1746 1464 1447 1177 725
1917 1890 1530 1254 1315 582 402 496 566 724 600 446 354 351 401 551 1161 1378 1477 1333 1387 1714 2170 2156 3114 3071 2480 2478 2814 3109 2770 3260 3277 2338 2366 2644 3030 2838 3178 3363 3024 3306 3464 3208 2963 3424 3269 2816 2738 2980 3112 2984 2994 2860 2396 2678 2400 2472 2882 2424 3666 3582 3917 4047 4481 3846 4039 4116 3818 3472 3783 3509 3207 3036 2512 1952 2060 1803 2992 2812 2176 1706 1897 1544 645
3120 1472 2148 1983 2192 2095 780 446 368 442 559 450 314 277 294 298 485 1148 1400 1776 1695 1538 1609 1686 2292 2532 2493 2769 2751 3064 3442 3362 3492 3262 2247 2164 2924 2823 3121 3314 3100 3278 3151 2863 3176 3158 2922 3206 3148 2793 3040 2835 2513 2597 2940 3193 3213 2942 2986 3596 3288 3209 4339 4082 4276 4435 4092 3812 3458 3100 3446 3309 2520 2750 2687 2608 2316 1490 1507 1982 2321 2551 2566 2460 1169
3277 2604 3071 2158 1951 1966 1408 1416 1007 388 701 523 404 264 248 240 253 582 1119 1625 1434 1421 1473 1826 1945 1876 2538 2891 2697 3166 3271 2812 3340 3596 3149 2823 2882 2864 2520 3046 3178 3204 2944 2664 2482 2214 2370 2326 2647 2617 2539 2729 2368 2246 2435 2592 2172 2168 2928 3232 2966 3210 3304 3336 3685 3728 3300 3084 2854 2601 2282 2534 2323 1546 1528 1772 1800 1870 1558 2070 2463 2650 2638 2556 2458
3548 3367 3117 2984 2237 1546 1270 727 912 1558 1904 1761 1478 528 226 170 173 500 1484 1409 1264 1392 1344 1179 1260 1739 2040 2408 2664 2763 3144 2928 3360 3369 3035 2882 2812 2734 2959 2888 2986 2799 2202 2882 2792 2391 2450 2331 1699 1881 2389 2661 2424 2481 2484 2378 2672 2393 2361 2869 3474 3396 3355 3213 3575 3509 3126 2722 2508 2363 2592 2394 2218 2240 2267 1942 2134 3278 3899 771 336 2154 2366 2464 1498
3778 3724 3927 3642 3372 3367 2966 2639 2320 2683 2617 3039 3278 2265 1393 710 891 941 1068 1215 1133 889 925 964 1115 1483 1544 2171 2550 2463 2041 2501 2785 2613 2719 2897 2320 2716 2679 2960 2690 2609 2342 2536 2440 2606 2414 1902 1388 1402 2026 2902 2042 2342 2811 2637 2261 2941 3608 3318 3336 3184 3371 3146 3038 3447 3640 3130 2877 2953 2620 2322 2446 2658 2797 2623 1216 653 654 1857 2082 1828 1637 1366 1668
3444 3664 3929 4166 3996 3556 3707 3450 4292 4390 3987 2946 2671 2960 2179 1992 1306 742 935 1243 1331 1609 1430 1260 927 1095 1365 2033 2286 1898 1709 1757 2509 2149 2048 2880 2697 2061 2332 2726 2956 3201 3053 2865 2501 2321 1940 1494 1227 1370 1161 1108 1292 2885 2931 1993 1561 1373 2015 2510 3541 3809 3728 3686 3462 3186 3166 3295 2962 2395 2074 1616 1059 559 772 783 534 1096 2442 2544 2443 2394 2315 2654 2617
2286 2381 2949 3224 3424 3290 3220 3658 3663 3497 3014 3043 3988 3970 3787 3422 2877 1978 1726 2002 2418 1714 1544 1484 565 1157 1190 1437 1786 1735 1387 1148 1691 1795 1504 1809 2265 2647 2728 3394 3174 3183 2856 3011 3128 2681 2156 1769 1142 1214 2808 2518 4029 3648 2285 1984 2137 1605 1599 1908 2651 2869 2948 2936 2730 2612 3040 2921 2553 2369 1546 1505 1846 1733 1335 582 1319 2897 2826 2760 2609 2836 3236 3164 3080
1814 1774 1805 2024 2500 2777 2992 2776 2710 2333 1922 2481 2220 2507 2814 2946 3335 2936 2674 2466 1971 1284 1378 1126 1386 1020 881 832 1052 1064 1340 1124 880 711 1212 1612 2113 2367 1872 1511 1392 2025 2484 2187 2361 2088 1695 1236 996 578 3382 2929 2787 3902 2981 2387 1846 1920 1995 1880 1882 2124 2110 2208 2290 2598 2658 2306 2352 2353 2091 1856 2000 1821 1416 1466 2954 2522 2948 3241 3366 3642 3652 3420 3151
1781 1752 1900 1903 1811 1974 2097 2022 1947 1921 1948 1997 2131 2431 2459 2473 2274 2673 2728 2452 1864 1724 1745 1781 1653 1654 1565 973 776 665 1325 1216 832 488 719 1232 1195 1899 1075 671 331 335 1366 2544 1989 1970 2842 3192 2451 1678 1100 832 1497 2770 4014 3529 2691 1802 1772 2073 2419 2217 1596 1283 1386 2177 2506 2547 2048 1856 1820 1760 2152 2637 2746 2343 2600 3084 3578 3582 3564 3706 3643 3358 3044
1742 1608 1576 1617 1825 1866 1717 1670 1625 1324 1339 1443 2004 2044 2031 2029 1840 3067 2900 2207 1522 1474 1470 1720 1850 1849 1702 1602 2002 1311 616 559 442 397 276 453 712 1183 1494 642 458 367 975 1147 744 1105 2278 1917 2036 2285 2455 2940 3096 3137 3047 4536 4157 3557 3294 3137 3129 3260 3124 1882 1578 1481 1464 1598 1480 1551 1916 2560 2660 2646 3139 3463 3317 3405 3692 3570 3374 2850 2578 2414 2365
1099 1012 1074 1084 1122 1454 1330 1546 1512 1355 1500 1724 1968 2076 2333 2470 1916 2651 2390 1928 2180 2229 2173 2350 1957 1319 1030 882 978 813 508 262 476 491 333 270 555 1052 1571 997 685 663 780 1219 1723 1328 1220 1563 1996 2303 2662 3203 3694 4494 2734 2687 2957 3264 4094 4267 4030 4070 3842 3920 3732 3189 2143 1366 1571 1536 1672 1956 2354 2655 2920 3943 3496 2793 2732 2759 2756 2624 2612 2599 2626
1186 1189 1118 969 1053 1039 990 1008 864 812 882 1138 1254 1361 1412 1312 1267 1316 2067 2344 2275 2316 2254 1943 1476 1328 1314 1087 555 570 421 349 441 429 367 500 834 1320 1546 1696 1499 1114 1030 1154 1488 2160 1948 1159 1155 1512 2326 2861 1966 2303 2548 4238 3978 3688 3469 3416 2896 2693 1647 1574 1352 1408 1992 2611 2310 1900 1741 1502 1428 1312 904 1082 1686 2766 2379 2240 2284 2398 2540 2598 2628
870 1002 987 930 854 846 783 727 734 759 737 768 813 802 760 762 912 1126 1136 1485 1612 1952 2104 1543 1342 1212 1037 1127 1089 673 412 418 506 702 676 734 528 1482 1882 1884 2053 1662 1439 1932 2700 1383 1584 2314 1714 1640 1978 2088 1695 2018 2278 2598 4047 3148 3884 3428 2938 2476 2332 2017 1885 1320 1432 1739 1185 743 912 1088 1436 1720 1824 1652 1713 1851 2072 2069 2110 2462 2716 2702 2547
565 591 488 638 681 679 623 617 662 624 655 734 770 778 794 745 736 826 1157 1281 1270 1453 1466 1326 1103 1062 1016 1032 983 583 426 624 901 742 824 832 901 1478 2464 3044 2477 2810 2434 2326 2113 1695 1603 2238 1744 859 1338 1283 1493 1698 1862 1880 2452 3182 3161 2974 2590 2130 2166 1730 1581 1969 2085 2452 2621 2505 2482 2448 2300 2290 2522 2666 2808 2475 2139 2060 2376 2522 2569 2165 2084
382 449 478 443 448 474 450 470 436 453 444 525 585 641 683 683 742 866 919 893 997 936 1034 902 810 914 947 1156 938 664 594 651 950 1048 1037 1040 1031 1613 2847 2802 2575 2685 2476 2130 1762 1887 1618 1454 1260 742 942 987 1282 1546 1633 1558 1329 1674 2072 2046 2006 1987 1812 1582 1650 1768 2047 2074 2260 2912 2758 2690 3279 3890 3382 3081 3112 2764 2468 2346 2402 2761 2290 2106 1978
330 361 448 491 499 435 430 435 404 352 362 364 480 509 456 671 742 834 876 894 590 584 612 634 657 685 828 951 1017 710 508 568 686 1152 1311 1320 1368 1437 2432 2218 2136 2058 2216 1950 1876 1528 1358 1281 757 686 878 1149 1440 1514 1461 1388 1240 976 1114 1388 1600 1898 1520 1474 1318 1316 1561 1635 1842 1976 2252 2576 2931 2973 2765 2911 2878 2646 3992 3557 2835 2372 2095 1664 1593
314 298 382 428 439 412 345 328 417 405 359 434 434 441 566 384 504 379 386 412 418 401 372 353 534 595 594 762 734 768 608 642 763 1092 1274 1281 1367 1366 1381 1353 1372 1477 1485 1336 1197 1186 1128 1270 1232 926 856 994 1160 1325 1335 1282 1278 1238 1129 1122 1262 1080 916 755 831 910 834 1329 1642 1936 2254 2378 2356 2166 2279 2243 2068 2160 2726 2686 2326 2349 1850 1670 1620
312 356 302 374 380 334 283 259 236 290 278 304 356 403 379 683 544 234 239 264 274 236 152 313 255 392 462 596 604 980 907 758 830 868 998 1038 1011 1000 1039 1094 1082 1118 1168 1152 1279 1150 1020 960 994 1002 1014 1030 945 859 943 1036 1092 1109 1070 969 839 679 567 584 607 624 639 614 1128 1664 1747 1708 1377 1660 1813 1937 1686 1857 1956 2022 2234 2220 2079 1809 1670
252 308 300 248 268 330 29 33 25 276 294 318 326 339 536 598 608 691 636 482 426 304 180 157 266 211 251 544 583 682 836 728 623 602 620 662 606 630 709 787 854 822 760 930 1269 1272 868 804 902 905 831 769 782 781 762 784 768 723 683 660 600 514 432 416 471 485 455 383 1424 2132 1566 1800 1739 1903 2031 1704 1486 1732 1558 1469 1546 1687 1900 2426 2041
182 174 197 272 282 111 18 22 43 264 242 196 128 295 298 278 496 862 666 427 498 412 320 152 16 150 5 264 485 571 556 424 536 554 573 532 435 383 438 552 619 649 616 585 1086 748 486 504 504 526 578 632 628 661 654 632 601 542 464 411 337 291 240 205 198 221 464 1094 1444 1666 1933 1655 1590 1482 1373 1637 1886 2046 2048 1535 1367 1206 1456 2156 1880
200 194 182 178 204 232 198 222 245 26 199 64 112 80 62 151 172 309 308 284 340 471 480 249 269 249 134 74 79 386 357 289 401 384 332 298 252 243 252 296 348 410 410 336 326 380 332 282 241 256 298 320 300 299 262 244 248 252 232 205 136 94 166 335 792 1076 1465 1200 1123 952 507 567 928 1085 967 1266 1194 1356 1695 1409 961 1098 1149 1267 1599
167 107 101 0 147 147 202 244 215 0 10 60 38 20 17 4 106 142 110 176 105 262 164 206 228 291 302 238 178 214 267 292 310 304 309 278 253 262 239 238 265 293 244 95 87 102 128 151 131 145 140 130 116 181 380 722 357 165 50 60 120 182 362 914 1027 1433 918 504 363 158 135 135 159 192 594 510 414 708 843 573 288 308 279 293 418
1 37 1 0 0 0 0 0 0 0 0 1 1 169 16 26 24 0 0 0 0 6 10 70 166 27 98 60 121 122 221 234 219 216 186 171 182 202 190 351 417 174 123 100 28 7 8 55 86 57 68 28 7 19 6 6 51 246 691 643 334 405 664 1551 871 412 209 132 4 0 0 18 69 204 112 96 244 430 252 148 93 58 41 103 203
0 0 56 5 63 93 0 0 0 0 0 0 10 0 0 0 0 0 0 0 0 0 0 6 3 3 9 38 26 13 1 0 0 0 44 0 53 59 65 65 26 0 0 0 0 0 0 0 2 64 109 109 169 198 197 179 221 286 298 33 0 0 72 45 18 0 0 0 0 0 4 77 72 6 4 21 88 196 180 148 124 52 32 53 116
2 0 0 1 12 6 8 0 0 0 0 0 0 0 0 0 0 0 0 0 0 0 0 0 0 0 0 0 0 0 0 0 0 0 0 0 0 0 0 0 0 0 0 0 1 0 0 0 0 1 262 350 297 362 345 911 848 251 0 0 0 0 0 0 0 0 0 0 0 0 0 0 0 0 0 2 56 42 118 65 55 52 132 126 83
8 0 0 0 0 0 2 0 0 0 0 12 0 0 0 0 0 0 0 0 0 0 0 0 0 0 0 0 0 0 0 0 0 0 0 0 0 0 0 0 0 0 0 0 0 0 0 2 86 121 500 322 0 14 0 0 0 0 0 0 0 0 0 0 0 0 0 0 0 0 0 0 0 0 0 0 0 0 0 0 18 56 22 6 2
7 0 0 0 0 0 0 0 0 0 0 0 0 7 0 0 0 0 0 0 0 0 0 0 0 0 0 0 0 0 0 0 0 0 0 0 0 0 0 0 0 0 0 0 0 5 14 6 40 169 78 2 0 16 5 5 2 0 0 0 0 0 0 0 0 0 0 0 0 0 0 0 0 0 0 0 0 0 0 0 0 0 0 0 0
2 1 1 0 0 0 0 0 0 0 0 0 0 4 7 0 0 0 0 0 0 0 0 0 0 0 0 0 0 0 0 0 0 0 0 0 0 0 0 0 0 0 0 0 0 0 1 0 10 72 1 1 0 0 0 0 0 0 0 0 0 0 0 0 0 0 0 0 0 0 0 0 0 0 0 0 0 0 0 0 0 0 0 0 0
0 0 0 0 0 0 0 0 0 0 0 0 1 0 10 9 3 0 0 0 0 0 0 0 0 0 0 0 0 0 0 0 0 0 0 0 0 0 0 0 0 0 0 0 0 0 0 0 0 1 0 2 10 5 3 0 0 0 0 0 0 2 0 0 5 4 0 0 0 0 0 1 0 0 0 0 0 0 0 0 0 0 0 0 0
0 0 0 0 0 0 1 0 0 0 0 0 0 0 0 0 0 0 0 0 0 0 0 0 0 0 0 0 0 0 0 0 0 0 0 0 0 0 0 0 0 0 0 0 0 0 0 0 0 0 0 0 0 0 0 0 0 0 0 0 0 3 7 0 1 0 0 0 0 0 0 1 0 4 4 4 8 4 2 0 1 0 0 1 0
0 0 0 0 0 0 0 0 0 0 0 0 0 0 0 0 0 0 3 0 3 11 0 0 0 0 0 0 0 0 0 0 0 0 0 0 0 0 0 0 9 0 0 0 0 8 16 5 0 0 0 0 0 0 0 0 0 0 0 0 0 0 0 0 1 5 3 0 0 2 4 6 18 15 12 11 10 10 6 6 4 8 6 6 5
0 0 0 0 0 0 0 0 0 0 0 0 0 0 0 0 0 0 0 0 0 0 4 9 0 0 0 0 0 0 0 0 0 0 0 0 0 0 0 0 0 2 12 76 34 36 28 7 4 9 5 0 0 0 0 0 0 0 0 0 0 0 0 0 0 0 0 8 16 20 15 25 27 13 7 8 12 10 8 7 4 2 0 0 0
0 0 0 0 0 0 0 0 0 0 0 0 0 0 0 0 0 0 0 0 0 0 0 13 4 0 0 0 0 0 0 0 0 0 0 0 0 0 0 0 4 18 8 8 15 27 37 14 16 19 20 12 13 6 2 0 0 0 0 0 0 1 0 0 1 16 25 17 28 38 20 8 5 3 4 4 4 3 2 0 0 0 0 0 0
0 0 0 0 0 0 0 0 0 0 0 0 0 0 0 0 0 0 0 0 0 0 2 2 0 1 2 15 1 0 0 0 0 0 0 0 0 0 0 6 0 0 0 0 0 0 0 0 0 0 0 0 14 29 13 10 2 1 0 0 0 0 0 2 10 14 5 5 2 0 0 0 0 0 0 0 0 0 0 0 0 0 0 0 0
0 0 0 0 0 0 0 0 0 0 0 0 0 0 0 0 0 0 0 0 2 1 1 2 0 0 0 0 0 0 0 0 0 0 0 3 5 0 0 0 0 0 1 0 0 0 0 0 0 0 0 0 0 0 0 4 4 2 1 0 0 0 0 0 2 5 1 0 0 0 0 0 0 0 0 0 0 0 0 0 0 0 0 0 0
0 0 0 0 0 0 0 0 0 0 0 0 0 0 0 0 0 0 0 0 0 0 0 0 0 0 0 0 0 0 0 0 0 0 0 0 0 0 0 0 0 0 1 1 0 0 0 0 0 0 0 0 0 0 0 0 0 0 0 0 0 0 0 1 4 5 2 0 0 0 0 0 0 0 0 0 0 0 0 0 0 0 0 0 0
0 0 0 0 0 0 0 0 0 0 0 0 0 0 0 0 0 0 0 0 0 0 0 0 0 0 0 0 0 0 0 0 0 0 1 0 1 0 0 0 0 0 1 1 0 0 1 2 0 0 0 0 0 2 2 1 0 0 1 0 0 1 2 2 1 1 4 4 5 2 0 0 0 0 0 0 0 0 0 0 0 0 0 0 0
0 0 0 0 0 0 0 0 0 0 0 0 0 0 0 0 0 0 0 0 0 0 0 0 0 0 0 0 0 0 0 0 0 0 0 0 0 0 1 0 0 0 0 0 0 0 0 0 0 0 0 0 2 4 6 4 3 4 4 4 4 4 2 2 0 0 0 0 0 1 2 2 1 1 2 2 2 2 2 1 0 0 0 0 0
0 0 0 0 0 0 0 0 0 0 0 0 0 0 0 0 0 0 0 0 0 0 0 0 0 2 0 0 0 0 0 0 0 0 0 0 0 3 4 1 1 1 0 0 2 1 0 0 0 0 0 0 0 1 6 6 4 4 3 2 0 0 0 0 0 0 0 0 2 3 4 2 1 1 1 1 0 0 0 0 0 0 0 0 0
0 0 0 0 0 0 0 0 0 0 0 0 0 0 0 0 0 0 0 0 0 0 0 0 0 0 0 0 0 0 0 0 0 0 0 0 0 0 0 1 0 0 0 5 8 10 2 0 0 0 1 2 0 0 0 0 0 0 0 0 0 0 0 0 0 0 0 0 0 2 2 2 2 1 0 0 0 0 0 0 0 0 0 0 0
0 0 0 0 0 0 0 0 0 0 0 0 0 0 0 0 0 0 0 0 0 0 0 0 0 0 0 0 0 0 0 0 0 0 0 0 0 0 0 1 1 1 2 6 8 10 8 2 6 9 10 1 1 0 1 2 0 0 0 0 0 0 0 0 1 1 0 0 0 0 0 0 0 0 0 0 0 0 0 0 0 0 0 0 0
0 0 0 0 0 0 0 0 0 0 0 0 0 0 0 0 0 0 0 0 0 0 0 0 0 0 0 0 0 0 0 0 0 0 0 0 0 0 0 1 3 3 2 1 3 6 4 10 9 6 6 14 6 7 5 2 2 0 0 0 0 0 0 0 0 0 0 0 0 0 0 0 0 0 0 0 0 0 0 0 0 0 0 0 0
0 0 0 0 0 0 0 0 0 0 0 0 0 0 0 0 0 0 0 0 0 0 0 0 0 0 0 0 0 0 0 0 1 0 0 0 1 1 2 2 4 2 3 2 0 2 10 15 10 5 7 12 10 18 17 10 0 1 1 1 2 1 1 0 0 0 0 0 0 0 0 0 0 0 0 0 0 0 0 2 3 4 8 6 7
0 0 0 0 0 0 0 0 0 0 0 0 0 0 0 0 0 0 0 0 0 0 0 0 0 0 0 0 0 0 0 0 1 0 1 0 2 1 2 4 0 2 4 3 2 2 2 8 16 16 8 10 13 5 9 2 2 1 1 2 1 0 0 0 0 0 0 0 0 0 0 0 0 0 0 0 1 2 4 5 5 5 7 7 9
0 0 0 0 0 0 0 0 0 0 0 0 0 0 0 0 0 0 0 0 0 0 0 0 0 1 0 1 0 1 0 1 1 1 1 1 0 0 1 6 6 4 0 1 0 0 2 7 12 8 16 9 13 5 3 0 0 0 3 1 2 0 0 0 0 0 0 0 0 0 0 0 0 0 0 0 1 2 5 7 8 8 9 11 8
0 0 0 0 0 0 0 0 0 0 0 0 0 0 0 0 0 0 0 0 0 0 0 0 0 0 0 0 1 0 1 1 0 0 0 1 0 1 0 3 3 2 4 2 1 2 2 1 2 3 3 4 4 4 3 1 2 2 2 2 1 1 0 0 0 0 0 0 0 0 0 0 0 0 0 0 2 5 8 8 10 11 10 10 14
0 1 0 0 0 0 0 0 0 0 0 0 0 0 0 0 0 0 0 0 0 0 0 1 1 2 2 3 3 2 1 1 1 1 2 1 0 2 3 2 1 0 3 4 3 2 1 4 3 1 3 2 4 2 1 0 2 0 2 1 1 0 0 0 0 0 0 0 0 0 0 0 0 0 0 3 4 5 10 11 16 17 16 18 23
Wind_Speed
20 18 19 18 19 17 15 13 10 10 9 13 11 10 9 6 6 6 7 5 6 7 3 3 3 2 3 3 4 5 1 2 3 2 3 2 1 2 2 7 4 3 4 1 1 3 3 4 5 4 4 3 4 3 4 7 9 5 5 6 6 9 10 11 10 7 6 8 8 7 3 3 3 5 6 5 4 4 5 7 9 11 14 14 13
20 18 18 19 18 18 16 15 13 12 10 11 10 11 9 10 10 9 7 8 8 6 6 4 5 4 1 2 3 6 3 2 2 3 3 3 3 3 4 5 3 2 2 3 3 1 4 6 4 3 4 4 3 3 6 4 7 8 9 8 6 7 9 10 8 8 5 6 5 7 5 5 5 5 3 3 5 6 7 8 9 11 13 12 11
18 17 16 18 17 17 16 17 15 13 12 11 11 10 10 9 13 11 8 9 8 7 7 5 9 7 5 4 5 6 5 4 4 3 4 4 3 2 4 5 4 3 4 4 4 4 3 4 5 4 3 5 6 5 3 4 6 9 7 8 8 7 8 7 8 6 4 4 4 3 5 5 4 4 5 6 5 6 9 10 11 11 11 11 8
15 16 16 16 15 16 16 17 16 15 13 13 12 12 11 11 13 13 10 9 9 9 8 8 12 11 9 7 6 5 7 5 4 4 5 5 5 5 4 6 4 2 3 3 4 5 4 4 4 3 3 3 4 4 4 5 4 6 4 5 4 6 9 9 8 8 6 4 4 5 5 5 6 6 8 8 8 10 12 13 14 13 11 9 8
16 16 15 15 15 14 15 16 15 15 14 14 13 13 12 12 14 14 11 10 11 10 10 10 13 12 10 7 8 7 7 7 5 4 6 6 5 5 6 8 6 3 2 3 3 3 3 2 3 5 3 3 3 3 2 2 5 5 4 3 3 6 4 6 8 8 7 7 5 6 6 7 7 8 9 9 10 12 15 17 16 16 15 14 9
21 18 17 17 16 16 16 15 15 15 14 14 14 14 14 13 14 16 14 15 14 11 11 11 13 13 11 9 9 9 9 9 8 6 5 6 7 7 8 8 7 6 4 4 5 4 4 4 3 3 4 4 2 2 2 3 5 3 2 4 6 4 4 4 5 6 6 6 6 5 7 6 8 10 11 10 10 11 13 14 16 16 16 15 13
22 21 22 19 18 18 17 17 17 15 15 15 16 16 15 15 12 15 16 16 14 13 12 12 14 13 13 11 10 11 10 9 10 10 9 9 9 8 8 11 9 8 7 6 4 6 5 5 6 6 5 5 4 3 3 4 3 3 4 4 5 5 4 4 5 5 6 6 8 8 8 10 11 9 8 9 10 12 12 13 14 15 14 14 12
25 24 23 21 18 17 18 16 15 18 19 19 17 16 15 14 15 16 20 15 15 15 13 13 14 15 14 13 13 13 13 12 12 12 11 11 11 11 11 11 12 11 10 8 7 7 7 7 6 7 8 8 6 6 6 6 7 6 6 6 7 8 8 8 8 9 9 10 10 9 11 11 9 10 9 9 9 11 13 13 11 13 13 15 14
30 27 24 21 19 20 21 21 20 20 20 21 21 20 18 17 17 19 18 17 15 15 15 14 15 16 16 16 14 14 14 13 15 14 13 12 13 13 13 14 15 14 11 7 9 11 9 8 7 6 9 8 7 8 8 15 12 12 12 11 11 11 10 11 10 10 10 11 10 11 11 10 10 9 9 10 10 7 9 13 13 12 12 12 14
33 29 26 24 24 23 23 26 29 30 27 22 22 22 20 20 19 18 19 18 19 19 18 15 15 17 19 19 18 16 16 16 18 12 14 16 17 15 16 17 16 16 16 14 11 12 10 10 9 3 4 4 8 11 13 15 15 13 13 13 13 13 14 13 13 12 11 11 11 12 11 11 10 11 11 11 8 11 13 13 12 11 10 11 14
33 29 25 26 26 28 30 30 30 32 33 32 30 28 28 27 28 27 27 27 24 19 18 22 20 22 20 21 21 19 18 18 20 16 13 15 17 19 19 18 19 18 17 16 16 14 13 13 13 8 9 16 19 18 15 14 15 14 14 14 14 15 15 14 15 15 14 13 14 13 13 12 13 14 13 10 13 14 13 13 11 12 12 11 11
27 30 28 27 27 28 29 30 32 34 33 31 29 28 27 26 25 26 26 25 26 24 21 17 24 23 18 24 23 22 21 23 24 16 18 20 20 20 18 18 19 20 20 18 17 16 15 14 14 12 19 19 17 16 14 14 14 14 13 12 12 12 14 15 14 14 14 13 14 14 14 14 14 15 12 13 14 13 13 13 14 13 12 11 12
21 24 29 31 30 31 30 30 34 38 33 29 29 29 26 25 25 25 26 28 28 26 26 28 25 26 28 29 24 23 28 35 30 25 20 20 20 18 18 20 20 20 21 21 19 18 21 23 21 19 17 15 13 17 18 16 15 13 12 12 13 13 13 14 15 14 14 14 13 13 14 14 15 16 17 14 15 14 15 15 15 15 14 12 12
15 18 20 23 27 31 33 33 34 37 32 28 28 24 21 22 24 27 31 32 29 27 27 27 29 32 33 32 32 34 40 40 41 35 22 16 19 20 21 20 22 21 22 23 23 25 25 23 21 19 22 22 20 19 21 18 18 16 16 17 16 15 16 15 14 15 16 15 15 15 17 19 17 19 18 18 16 15 16 16 17 16 14 13 14
22 20 22 24 22 26 29 31 35 37 36 33 32 30 30 31 30 33 33 33 32 31 30 30 31 32 33 36 38 40 38 45 42 39 34 27 25 27 25 23 24 25 26 26 26 26 25 25 27 25 25 23 27 26 21 17 19 18 18 18 18 18 18 19 19 20 20 19 17 17 18 19 19 20 21 21 22 20 18 16 17 17 14 14 16
23 22 21 19 21 23 25 29 31 32 33 32 31 32 33 34 34 35 35 36 36 36 34 33 32 33 36 37 36 35 39 44 43 39 35 36 35 32 31 28 27 27 28 28 27 31 32 34 30 31 32 31 29 29 28 24 23 21 21 20 20 19 19 20 23 25 23 24 22 21 22 23 24 22 22 23 23 23 20 18 19 18 15 14 14
27 26 24 21 23 24 24 24 24 24 29 29 28 30 34 37 36 35 35 37 37 33 30 30 32 33 35 34 33 34 36 39 41 37 36 40 39 37 33 31 30 29 29 31 35 36 32 32 33 30 30 27 31 32 29 26 23 23 23 21 20 20 20 20 18 27 29 27 21 19 19 19 19 19 22 23 23 25 22 19 18 19 18 15 15
31 28 27 26 26 25 24 22 21 22 24 23 22 21 24 28 30 29 26 27 28 28 29 28 28 30 32 32 32 33 33 36 37 38 40 40 38 37 36 35 34 34 34 36 35 36 36 38 35 32 31 31 35 33 32 28 24 24 23 22 20 20 21 22 23 25 27 27 23 22 20 21 22 22 22 22 21 29 27 20 20 21 19 18 16
31 30 30 29 28 28 28 28 27 28 29 27 24 23 23 23 23 19 20 19 19 21 22 22 23 27 29 32 36 40 39 38 39 36 38 41 38 35 35 36 36 35 35 35 35 35 37 37 41 39 35 32 35 35 34 31 27 27 26 23 22 21 27 28 26 25 24 24 25 24 24 24 24 24 24 21 25 30 31 27 25 25 23 22 22
34 33 32 31 30 29 28 28 27 28 28 27 25 25 26 26 25 24 25 24 25 26 25 20 17 23 25 30 36 42 44 42 40 38 36 40 40 35 34 34 33 33 34 36 33 34 36 36 40 42 39 35 33 34 34 33 30 27 27 26 24 24 28 25 24 24 24 24 25 25 24 25 25 26 26 28 29 28 31 32 31 30 30 24 24
37 33 32 33 32 31 29 28 28 27 27 27 25 27 25 27 26 25 25 25 25 28 30 31 28 25 28 31 32 34 38 39 36 35 32 34 40 40 39 40 38 36 36 34 33 32 33 34 37 40 40 37 35 35 34 33 31 29 28 26 27 27 27 25 24 23 24 25 26 27 28 29 29 28 28 29 28 29 31 32 33 35 35 29 25
38 37 35 34 34 32 28 27 30 31 31 31 31 31 31 30 27 27 25 25 25 27 28 29 29 28 27 29 29 29 32 34 26 24 22 22 26 28 29 33 33 32 34 33 32 35 33 33 34 38 38 37 36 33 31 31 33 31 29 27 25 25 27 27 26 25 26 28 28 30 32 31 30 30 28 28 28 29 30 30 33 33 34 35 30
40 37 36 36 37 34 nan nan nan 34 35 33 33 34 33 34 33 32 30 30 28 28 29 29 29 29 28 27 26 27 28 27 25 24 24 25 23 23 21 21 19 25 28 32 35 35 33 33 35 39 37 37 37 34 32 32 33 31 26 25 23 28 29 29 28 28 28 29 31 32 31 32 32 32 32 30 30 30 29 29 30 31 32 33 33
40 38 37 38 36 35 nan nan nan 36 35 34 35 32 33 34 35 33 32 32 31 30 29 29 nan 31 nan 29 29 29 28 27 27 31 30 27 25 24 22 19 17 18 19 22 28 33 33 34 34 33 33 35 36 36 34 33 32 28 27 26 28 30 31 31 30 30 30 32 32 31 32 34 36 35 33 31 30 29 29 30 31 32 31 30 29
41 42 41 40 39 38 37 37 38 nan 37 nan 34 nan nan 36 37 36 37 35 34 34 33 32 33 33 33 nan nan 34 32 31 31 31 29 27 25 24 21 19 17 20 21 25 25 26 26 26 26 26 29 31 32 34 34 32 29 28 27 30 33 nan 34 34 34 33 34 34 35 37 39 41 39 37 34 32 31 30 31 33 32 31 30 29 27
42 42 42 nan 41 42 41 40 40 nan nan nan nan nan nan nan 37 37 36 35 35 35 33 34 37 35 35 34 36 36 35 34 33 31 28 28 27 22 20 19 19 21 22 nan nan 19 17 16 16 18 21 24 29 32 34 37 39 37 nan nan 37 37 37 37 37 37 38 39 40 41 41 39 38 35 34 34 32 32 35 35 33 30 30 27 27
nan nan nan nan nan nan nan nan nan nan nan nan nan 41 nan nan nan nan nan nan nan nan nan nan 35 nan nan nan 35 37 36 35 34 31 30 29 29 28 27 26 23 21 23 27 nan nan nan nan nan nan nan nan nan nan nan nan nan 32 35 36 38 38 37 38 40 42 43 41 nan nan nan nan nan 36 36 nan 35 36 37 36 nan nan nan 30 28
nan nan nan nan nan nan nan nan nan nan nan nan nan nan nan nan nan nan nan nan nan nan nan nan nan nan nan nan nan nan nan nan nan nan nan nan nan nan nan nan nan nan nan nan nan nan nan nan nan nan 18 19 20 21 22 22 23 26 28 nan nan nan nan nan nan nan nan nan nan nan nan nan nan nan nan nan nan 35 37 36 36 nan nan nan 31
nan nan nan nan nan nan nan nan nan nan nan nan nan nan nan nan nan nan nan nan nan nan nan nan nan nan nan nan nan nan nan nan nan nan nan nan nan nan nan nan nan nan nan nan nan nan nan nan nan nan 22 23 24 24 25 27 27 26 nan nan nan nan nan nan nan nan nan nan nan nan nan nan nan nan nan nan nan nan 38 nan nan nan 35 34 nan
nan nan nan nan nan nan nan nan nan nan nan nan nan nan nan nan nan nan nan nan nan nan nan nan nan nan nan nan nan nan nan nan nan nan nan nan nan nan nan nan nan nan nan nan nan nan nan nan nan 22 28 25 nan nan nan nan nan nan nan nan nan nan nan nan nan nan nan nan nan nan nan nan nan nan nan nan nan nan nan nan nan nan nan nan nan
nan nan nan nan nan nan nan nan nan nan nan nan nan nan nan nan nan nan nan nan nan nan nan nan nan nan nan nan nan nan nan nan nan nan nan nan nan nan nan nan nan nan nan nan nan nan nan nan nan 24 nan nan nan nan nan nan nan nan nan nan nan nan nan nan nan nan nan nan nan nan nan nan nan nan nan nan nan nan nan nan nan nan nan nan nan
nan nan nan nan nan nan nan nan nan nan nan nan nan nan nan nan nan nan nan nan nan nan nan nan nan nan nan nan nan nan nan nan nan nan nan nan nan nan nan nan nan nan nan nan nan nan nan nan nan nan nan nan nan nan nan nan nan nan nan nan nan nan nan nan nan nan nan nan nan nan nan nan nan nan nan nan nan nan nan nan nan nan nan nan nan
nan nan nan nan nan nan nan nan nan nan nan nan nan nan nan nan nan nan nan nan nan nan nan nan nan nan nan nan nan nan nan nan nan nan nan nan nan nan nan nan nan nan nan nan nan nan nan nan nan nan nan nan nan nan nan nan nan nan nan nan nan nan nan nan nan nan nan nan nan nan nan nan nan nan nan nan nan nan nan nan nan nan nan nan nan
nan nan nan nan nan nan nan nan nan nan nan nan nan nan nan nan nan nan nan nan nan nan nan nan nan nan nan nan nan nan nan nan nan nan nan nan nan nan nan nan nan nan nan nan nan nan nan nan nan nan nan nan nan nan nan nan nan nan nan nan nan nan nan nan nan nan nan nan nan nan nan nan nan nan nan nan nan nan nan nan nan nan nan nan nan
nan nan nan nan nan nan nan nan nan nan nan nan nan nan nan nan nan nan nan nan nan nan nan nan nan nan nan nan nan nan nan nan nan nan nan nan nan nan nan nan nan nan nan nan nan nan nan nan nan nan nan nan nan nan nan nan nan nan nan nan nan nan nan nan nan nan nan nan nan nan nan nan nan nan nan nan nan nan nan nan nan nan nan nan nan
nan nan nan nan nan nan nan nan nan nan nan nan nan nan nan nan nan nan nan nan nan nan nan nan nan nan nan nan nan nan nan nan nan nan nan nan nan nan nan nan nan nan nan nan nan nan nan nan nan nan nan nan nan nan nan nan nan nan nan nan nan nan nan nan nan nan nan nan nan nan nan nan nan nan nan nan nan nan nan nan nan nan nan nan nan
nan nan nan nan nan nan nan nan nan nan nan nan nan nan nan nan nan nan nan nan nan nan nan nan nan nan nan nan nan nan nan nan nan nan nan nan nan nan nan nan nan nan nan nan nan nan nan nan nan nan nan nan nan nan nan nan nan nan nan nan nan nan nan nan nan nan nan nan nan nan nan nan nan nan nan nan nan nan nan nan nan nan nan nan nan
nan nan nan nan nan nan nan nan nan nan nan nan nan nan nan nan nan nan nan nan nan nan nan nan nan nan nan nan nan nan nan nan nan nan nan nan nan nan nan nan nan nan nan nan nan nan nan nan nan nan nan nan nan nan nan nan nan nan nan nan nan nan nan nan nan nan nan nan nan nan nan nan nan nan nan nan nan nan nan nan nan nan nan nan nan
nan nan nan nan nan nan nan nan nan nan nan nan nan nan nan nan nan nan nan nan nan nan nan nan nan nan nan nan nan nan nan nan nan nan nan nan nan nan nan nan nan nan nan nan nan nan nan nan nan nan nan nan nan nan nan nan nan nan nan nan nan nan nan nan nan nan nan nan nan nan nan nan nan nan nan nan nan nan nan nan nan nan nan nan nan
nan nan nan nan nan nan nan nan nan nan nan nan nan nan nan nan nan nan nan nan nan nan nan nan nan nan nan nan nan nan nan nan nan nan nan nan nan nan nan nan nan nan nan nan nan nan nan nan nan nan nan nan nan nan nan nan nan nan nan nan nan nan nan nan nan nan nan nan nan nan nan nan nan nan nan nan nan nan nan nan nan nan nan nan nan
nan nan nan nan nan nan nan nan nan nan nan nan nan nan nan nan nan nan nan nan nan nan nan nan nan nan nan nan nan nan nan nan nan nan nan nan nan nan nan nan nan nan nan nan nan nan nan nan nan nan nan nan nan nan nan nan nan nan nan nan nan nan nan nan nan nan nan nan nan nan nan nan nan nan nan nan nan nan nan nan nan nan nan nan nan
nan nan nan nan nan nan nan nan nan nan nan nan nan nan nan nan nan nan nan nan nan nan nan nan nan nan nan nan nan nan nan nan nan nan nan nan nan nan nan nan nan nan nan nan nan nan nan nan nan nan nan nan nan nan nan nan nan nan nan nan nan nan nan nan nan nan nan nan nan nan nan nan nan nan nan nan nan nan nan nan nan nan nan nan nan
nan nan nan nan nan nan nan nan nan nan nan nan nan nan nan nan nan nan nan nan nan nan nan nan nan nan nan nan nan nan nan nan nan nan nan nan nan nan nan nan nan nan nan nan nan nan nan nan nan nan nan nan nan nan nan nan nan nan nan nan nan nan nan nan nan nan nan nan nan nan nan nan nan nan nan nan nan nan nan nan nan nan nan nan nan
nan nan nan nan nan nan nan nan nan nan nan nan nan nan nan nan nan nan nan nan nan nan nan nan nan nan nan nan nan nan nan nan nan nan nan nan nan nan nan nan nan nan nan nan nan nan nan nan nan nan nan nan nan nan nan nan nan nan nan nan nan nan nan nan nan nan nan nan nan nan nan nan nan nan nan nan nan nan nan nan nan nan nan nan nan
nan nan nan nan nan nan nan nan nan nan nan nan nan nan nan nan nan nan nan nan nan nan nan nan nan nan nan nan nan nan nan nan nan nan nan nan nan nan nan nan nan nan nan nan nan nan nan nan nan nan nan nan nan nan nan nan nan nan nan nan nan nan nan nan nan nan nan nan nan nan nan nan nan nan nan nan nan nan nan nan nan nan nan nan nan
nan nan nan nan nan nan nan nan nan nan nan nan nan nan nan nan nan nan nan nan nan nan nan nan nan nan nan nan nan nan nan nan nan nan nan nan nan nan nan nan nan nan nan nan nan nan nan nan nan nan nan nan nan nan nan nan nan nan nan nan nan nan nan nan nan nan nan nan nan nan nan nan nan nan nan nan nan nan nan nan nan nan nan nan nan
nan nan nan nan nan nan nan nan nan nan nan nan nan nan nan nan nan nan nan nan nan nan nan nan nan nan nan nan nan nan nan nan nan nan nan nan nan nan nan nan nan nan nan nan nan nan nan nan nan nan nan nan nan nan nan nan nan nan nan nan nan nan nan nan nan nan nan nan nan nan nan nan nan nan nan nan nan nan nan nan nan nan nan nan nan
nan nan nan nan nan nan nan nan nan nan nan nan nan nan nan nan nan nan nan nan nan nan nan nan nan nan nan nan nan nan nan nan nan nan nan nan nan nan nan nan nan nan nan nan nan nan nan nan nan nan nan nan nan nan nan nan nan nan nan nan nan nan nan nan nan nan nan nan nan nan nan nan nan nan nan nan nan nan nan nan nan nan nan nan nan
nan nan nan nan nan nan nan nan nan nan nan nan nan nan nan nan nan nan nan nan nan nan nan nan nan nan nan nan nan nan nan nan nan nan nan nan nan nan nan nan nan nan nan nan nan nan nan nan nan nan nan nan nan nan nan nan nan nan nan nan nan nan nan nan nan nan nan nan nan nan nan nan nan nan nan nan nan nan nan nan nan nan nan nan nan
nan nan nan nan nan nan nan nan nan nan nan nan nan nan nan nan nan nan nan nan nan nan nan nan nan nan nan nan nan nan nan nan nan nan nan nan nan nan nan nan nan nan nan nan nan nan nan nan nan nan nan nan nan nan nan nan nan nan nan nan nan nan nan nan nan nan nan nan nan nan nan nan nan nan nan nan nan nan nan nan nan nan nan nan nan
nan nan nan nan nan nan nan nan nan nan nan nan nan nan nan nan nan nan nan nan nan nan nan nan nan nan nan nan nan nan nan nan nan nan nan nan nan nan nan nan nan nan nan nan nan nan nan nan nan nan nan nan nan nan nan nan nan nan nan nan nan nan nan nan nan nan nan nan nan nan nan nan nan nan nan nan nan nan nan nan nan nan nan nan nan
Wind_Direction
274 266 269 268 273 279 282 279 283 274 276 275 271 262 261 260 270 261 266 256 260 281 281 283 276 314 329 333 16 306 315 303 313 292 320 312 309 283 253 309 324 335 323 333 355 309 288 297 285 277 272 267 281 302 302 323 308 317 341 294 285 293 305 307 320 333 328 316 311 315 309 291 307 316 345 342 351 308 295 329 329 343 351 351 342
264 262 262 267 273 278 281 279 279 272 277 276 273 277 282 277 264 248 257 254 258 260 280 294 283 276 287 335 315 304 303 278 316 292 304 297 325 333 315 292 319 337 303 321 315 278 294 297 289 294 305 310 312 335 340 320 324 318 295 316 323 316 316 313 331 326 329 302 312 329 342 344 351 320 320 15 360 323 323 314 325 331 334 335 345
262 262 258 262 269 271 272 275 274 276 277 271 276 271 270 269 272 272 263 266 263 263 264 271 259 267 258 251 267 292 299 305 302 276 275 292 291 307 319 325 331 358 9 354 350 313 315 307 326 320 336 330 329 337 323 318 284 289 325 323 335 328 323 315 304 320 320 318 316 337 328 319 321 353 6 355 323 325 318 315 317 323 326 329 338
254 254 253 254 269 269 267 266 272 273 270 266 270 270 265 262 264 270 264 261 271 257 257 270 263 261 258 260 251 252 273 285 301 305 290 277 284 284 262 282 295 332 -0 343 344 331 345 334 340 329 313 284 282 262 263 271 280 290 270 288 314 315 308 323 316 315 315 341 341 333 318 319 339 359 356 333 333 321 318 320 317 315 322 336 342
249 254 251 250 249 255 267 266 268 269 267 262 265 264 263 260 260 268 267 263 263 260 257 258 260 264 266 265 267 260 267 271 269 289 277 281 288 283 277 279 283 282 266 288 307 294 304 321 325 324 320 289 286 297 308 334 309 291 306 323 303 288 300 297 323 326 334 357 347 326 321 327 334 342 331 321 318 322 316 317 320 330 338 341 350
251 259 246 245 244 240 244 255 259 259 256 256 257 259 258 256 258 265 265 262 259 263 263 260 263 265 265 262 263 267 260 268 272 271 278 274 264 272 274 270 279 293 291 277 277 271 274 272 257 257 277 304 290 275 265 233 243 296 340 316 302 287 304 310 316 334 335 331 323 318 311 312 303 298 296 301 308 311 315 320 324 330 336 337 336
252 251 244 244 242 240 241 234 244 252 250 244 246 247 252 258 257 268 269 266 266 269 267 264 260 266 268 272 271 264 264 265 264 267 268 267 257 261 267 268 266 261 256 258 259 265 267 274 275 273 266 262 265 272 283 302 302 250 242 239 254 287 295 303 300 297 297 289 287 290 288 290 282 282 294 312 320 319 320 311 317 324 324 323 325
251 250 249 245 240 242 245 244 242 240 240 243 240 241 248 249 253 256 265 264 266 267 269 268 266 266 268 271 268 266 265 262 260 260 260 267 272 263 260 264 263 251 248 255 261 262 262 264 267 277 278 272 279 272 261 252 264 271 274 265 264 266 266 264 262 263 268 270 276 276 284 288 294 307 312 299 301 301 306 309 309 304 308 313 317
244 246 246 247 241 237 238 240 238 239 239 234 233 234 236 241 243 242 250 264 262 261 262 260 262 270 269 264 267 268 267 267 261 255 259 258 261 261 259 259 269 276 276 264 259 258 254 255 260 277 282 309 334 312 285 271 269 260 253 252 257 258 260 262 265 266 269 276 279 282 289 299 308 311 304 305 294 295 304 293 296 300 296 297 314
238 239 243 242 243 243 242 242 236 233 231 234 234 229 227 229 229 235 248 263 257 252 251 258 275 278 274 270 265 266 266 268 270 274 264 261 258 260 264 260 260 258 255 251 257 268 269 264 260 249 247 315 309 314 307 293 285 281 274 269 264 263 263 263 262 265 269 273 277 280 283 287 292 292 291 288 292 290 280 282 281 288 290 305 313
230 236 239 240 242 243 242 242 241 241 237 230 231 230 226 227 232 234 228 225 232 239 249 240 247 253 264 269 270 268 264 257 270 274 278 278 261 258 259 263 263 260 256 255 251 248 247 256 256 260 289 277 278 289 290 289 288 281 283 282 279 273 271 271 273 271 273 274 276 278 275 275 276 275 276 279 287 279 283 283 290 295 302 302 301
231 231 233 235 237 240 242 242 243 240 236 232 232 232 232 232 234 234 234 235 242 236 236 259 265 271 264 259 261 262 257 260 255 258 277 280 273 263 260 259 260 262 261 257 257 252 248 249 251 248 265 273 266 269 281 290 287 288 288 287 286 288 287 282 275 271 272 273 274 277 274 275 275 277 282 287 283 282 290 297 303 303 302 306 303
243 237 234 234 235 237 236 238 241 241 232 232 231 230 231 235 238 240 241 243 242 242 238 233 238 248 260 261 252 253 256 235 225 245 253 272 282 273 263 261 255 256 262 267 264 260 254 251 248 242 237 242 259 267 273 272 282 290 293 289 287 287 291 296 294 289 279 279 280 282 288 285 285 287 287 289 292 295 296 300 301 302 304 305 305
265 255 248 243 240 238 238 238 239 250 252 242 243 244 239 244 246 251 254 250 249 246 242 241 241 245 248 250 253 254 250 234 226 213 224 259 277 274 265 261 259 253 248 247 248 252 258 258 255 251 248 246 245 242 249 260 267 270 269 271 277 285 293 303 310 315 310 303 302 300 296 292 291 285 287 287 287 290 290 294 293 297 304 310 305
245 248 247 241 237 239 238 240 242 244 247 249 250 250 247 246 248 250 257 261 259 257 253 249 249 248 249 251 253 256 254 246 234 229 230 242 251 261 254 252 253 253 251 249 250 249 249 252 250 247 251 255 248 243 253 248 254 262 269 272 273 273 277 284 292 297 298 299 303 303 296 292 288 282 280 281 284 285 291 295 295 297 302 306 307
257 255 251 246 246 244 242 241 246 249 250 250 250 248 245 244 247 249 251 258 259 255 252 250 248 250 253 255 259 258 255 251 250 243 237 239 242 251 251 249 249 249 248 249 248 249 249 251 253 252 250 251 243 233 240 247 254 256 255 256 261 264 265 265 263 270 273 276 279 280 282 281 282 289 291 289 291 292 289 291 292 293 294 293 294
252 257 255 246 246 248 252 255 251 251 252 254 253 249 246 244 246 250 252 253 254 250 249 251 250 252 257 261 262 259 254 253 258 255 248 241 241 245 246 247 249 249 251 252 252 254 253 254 256 255 256 257 250 239 234 236 255 256 257 254 254 253 257 259 257 274 278 284 287 286 283 284 286 290 294 301 295 290 289 288 292 292 292 286 284
250 248 250 251 249 252 256 261 261 258 259 260 259 255 248 248 246 244 253 256 251 246 249 253 255 254 260 263 263 263 260 252 249 254 256 252 250 248 246 245 246 248 249 251 253 255 255 253 256 256 252 250 245 243 237 241 251 254 256 255 256 259 263 260 264 269 269 274 276 276 275 271 272 277 285 288 290 295 296 296 292 290 291 287 283
247 249 246 245 248 252 257 259 257 257 258 258 258 256 257 251 254 254 249 244 245 247 251 257 258 262 263 264 267 263 259 256 253 253 256 255 254 254 252 250 250 251 253 255 255 255 256 256 257 258 258 256 253 251 246 245 251 251 253 256 258 258 258 253 258 261 266 267 271 272 274 273 277 280 280 281 295 301 303 305 298 296 293 291 290
245 244 247 247 248 248 247 249 254 257 257 256 253 253 250 250 252 252 249 248 248 246 246 250 267 273 273 271 265 260 257 257 259 256 253 253 253 257 259 260 256 253 254 255 256 257 256 258 263 264 267 264 260 255 254 252 255 256 256 258 257 255 255 253 258 261 265 269 272 274 276 277 277 278 279 281 283 290 298 300 299 297 293 294 294
251 247 247 252 253 252 246 245 247 247 255 256 255 254 255 255 253 254 255 256 256 253 255 253 250 257 269 270 266 257 256 260 262 262 255 252 251 256 264 260 259 256 255 255 255 254 256 257 260 262 261 259 258 256 254 252 256 261 263 264 261 261 260 260 258 253 266 272 275 277 277 275 274 274 275 278 281 285 289 294 295 294 297 300 299
249 249 246 246 248 249 252 253 248 246 246 248 249 249 250 252 253 256 256 258 259 258 254 257 260 260 261 267 259 250 253 260 263 262 264 263 261 259 268 267 263 260 258 255 254 257 258 257 256 262 262 260 258 257 254 259 264 266 267 262 254 255 262 264 263 265 267 269 271 274 272 272 272 275 277 277 278 281 283 289 292 296 299 302 303
248 247 245 242 243 241 nan nan nan 247 245 241 244 249 249 251 250 249 248 254 258 260 261 263 264 266 266 263 261 259 257 259 263 272 278 276 272 270 276 282 273 269 261 257 259 258 258 255 257 260 258 260 259 258 261 263 266 270 271 268 269 261 264 269 269 268 269 270 270 270 273 276 277 275 273 273 275 278 283 288 290 290 291 293 294
253 247 245 246 245 241 nan nan nan 250 249 247 243 243 248 247 246 250 252 251 255 259 260 262 nan 262 nan 266 269 267 265 264 270 278 281 276 272 275 277 281 287 285 283 271 263 262 259 259 259 257 258 259 259 258 258 264 268 265 265 269 267 268 272 272 275 278 278 276 274 275 275 276 276 277 278 278 278 281 285 285 285 284 285 287 291
244 245 242 240 243 241 238 238 240 nan 247 nan 252 nan nan 248 246 242 245 244 248 253 253 257 260 262 263 nan nan 271 273 277 278 281 284 279 273 269 272 274 275 280 277 282 276 269 263 261 261 262 262 262 263 263 263 264 269 272 273 271 270 nan 275 275 274 276 277 278 278 275 273 273 274 276 276 275 275 280 283 283 280 280 278 280 284
238 241 245 nan 236 241 242 239 235 nan nan nan nan nan nan nan 243 244 245 249 247 247 253 256 260 260 263 264 266 273 279 277 271 268 265 265 269 270 272 276 273 272 273 nan nan 257 253 257 257 258 262 268 270 271 269 266 262 265 nan nan 275 276 277 276 276 276 274 273 271 270 271 272 272 273 275 274 276 280 280 278 276 275 274 277 281
nan nan nan nan nan nan nan nan nan nan nan nan nan 238 nan nan nan nan nan nan nan nan nan nan 258 nan nan nan 267 266 265 262 262 261 258 259 261 261 263 266 269 264 265 266 nan nan nan nan nan nan nan nan nan nan nan nan nan 266 268 272 275 274 275 278 273 268 268 268 nan nan nan nan nan 276 274 nan 280 281 279 278 nan nan nan 277 280
nan nan nan nan nan nan nan nan nan nan nan nan nan nan nan nan nan nan nan nan nan nan nan nan nan nan nan nan nan nan nan nan nan nan nan nan nan nan nan nan nan nan nan nan nan nan nan nan nan nan 263 262 264 270 275 279 275 272 273 nan nan nan nan nan nan nan nan nan nan nan nan nan nan nan nan nan nan 282 281 279 279 nan nan nan 278
nan nan nan nan nan nan nan nan nan nan nan nan nan nan nan nan nan nan nan nan nan nan nan nan nan nan nan nan nan nan nan nan nan nan nan nan nan nan nan nan nan nan nan nan nan nan nan nan nan nan 279 275 277 277 278 278 279 278 nan nan nan nan nan nan nan nan nan nan nan nan nan nan nan nan nan nan nan nan 279 nan nan nan 286 285 nan
nan nan nan nan nan nan nan nan nan nan nan nan nan nan nan nan nan nan nan nan nan nan nan nan nan nan nan nan nan nan nan nan nan nan nan nan nan nan nan nan nan nan nan nan nan nan nan nan nan 263 273 278 nan nan nan nan nan nan nan nan nan nan nan nan nan nan nan nan nan nan nan nan nan nan nan nan nan nan nan nan nan nan nan nan nan
nan nan nan nan nan nan nan nan nan nan nan nan nan nan nan nan nan nan nan nan nan nan nan nan nan nan nan nan nan nan nan nan nan nan nan nan nan nan nan nan nan nan nan nan nan nan nan nan nan 265 nan nan nan nan nan nan nan nan nan nan nan nan nan nan nan nan nan nan nan nan nan nan nan nan nan nan nan nan nan nan nan nan nan nan nan
nan nan nan nan nan nan nan nan nan nan nan nan nan nan nan nan nan nan nan nan nan nan nan nan nan nan nan nan nan nan nan nan nan nan nan nan nan nan nan nan nan nan nan nan nan nan nan nan nan nan nan nan nan nan nan nan nan nan nan nan nan nan nan nan nan nan nan nan nan nan nan nan nan nan nan nan nan nan nan nan nan nan nan nan nan
nan nan nan nan nan nan nan nan nan nan nan nan nan nan nan nan nan nan nan nan nan nan nan nan nan nan nan nan nan nan nan nan nan nan nan nan nan nan nan nan nan nan nan nan nan nan nan nan nan nan nan nan nan nan nan nan nan nan nan nan nan nan nan nan nan nan nan nan nan nan nan nan nan nan nan nan nan nan nan nan nan nan nan nan nan
nan nan nan nan nan nan nan nan nan nan nan nan nan nan nan nan nan nan nan nan nan nan nan nan nan nan nan nan nan nan nan nan nan nan nan nan nan nan nan nan nan nan nan nan nan nan nan nan nan nan nan nan nan nan nan nan nan nan nan nan nan nan nan nan nan nan nan nan nan nan nan nan nan nan nan nan nan nan nan nan nan nan nan nan nan
nan nan nan nan nan nan nan nan nan nan nan nan nan nan nan nan nan nan nan nan nan nan nan nan nan nan nan nan nan nan nan nan nan nan nan nan nan nan nan nan nan nan nan nan nan nan nan nan nan nan nan nan nan nan nan nan nan nan nan nan nan nan nan nan nan nan nan nan nan nan nan nan nan nan nan nan nan nan nan nan nan nan nan nan nan
nan nan nan nan nan nan nan nan nan nan nan nan nan nan nan nan nan nan nan nan nan nan nan nan nan nan nan nan nan nan nan nan nan nan nan nan nan nan nan nan nan nan nan nan nan nan nan nan nan nan nan nan nan nan nan nan nan nan nan nan nan nan nan nan nan nan nan nan nan nan nan nan nan nan nan nan nan nan nan nan nan nan nan nan nan
nan nan nan nan nan nan nan nan nan nan nan nan nan nan nan nan nan nan nan nan nan nan nan nan nan nan nan nan nan nan nan nan nan nan nan nan nan nan nan nan nan nan nan nan nan nan nan nan nan nan nan nan nan nan nan nan nan nan nan nan nan nan nan nan nan nan nan nan nan nan nan nan nan nan nan nan nan nan nan nan nan nan nan nan nan
nan nan nan nan nan nan nan nan nan nan nan nan nan nan nan nan nan nan nan nan nan nan nan nan nan nan nan nan nan nan nan nan nan nan nan nan nan nan nan nan nan nan nan nan nan nan nan nan nan nan nan nan nan nan nan nan nan nan nan nan nan nan nan nan nan nan nan nan nan nan nan nan nan nan nan nan nan nan nan nan nan nan nan nan nan
nan nan nan nan nan nan nan nan nan nan nan nan nan nan nan nan nan nan nan nan nan nan nan nan nan nan nan nan nan nan nan nan nan nan nan nan nan nan nan nan nan nan nan nan nan nan nan nan nan nan nan nan nan nan nan nan nan nan nan nan nan nan nan nan nan nan nan nan nan nan nan nan nan nan nan nan nan nan nan nan nan nan nan nan nan
nan nan nan nan nan nan nan nan nan nan nan nan nan nan nan nan nan nan nan nan nan nan nan nan nan nan nan nan nan nan nan nan nan nan nan nan nan nan nan nan nan nan nan nan nan nan nan nan nan nan nan nan nan nan nan nan nan nan nan nan nan nan nan nan nan nan nan nan nan nan nan nan nan nan nan nan nan nan nan nan nan nan nan nan nan
nan nan nan nan nan nan nan nan nan nan nan nan nan nan nan nan nan nan nan nan nan nan nan nan nan nan nan nan nan nan nan nan nan nan nan nan nan nan nan nan nan nan nan nan nan nan nan nan nan nan nan nan nan nan nan nan nan nan nan nan nan nan nan nan nan nan nan nan nan nan nan nan nan nan nan nan nan nan nan nan nan nan nan nan nan
nan nan nan nan nan nan nan nan nan nan nan nan nan nan nan nan nan nan nan nan nan nan nan nan nan nan nan nan nan nan nan nan nan nan nan nan nan nan nan nan nan nan nan nan nan nan nan nan nan nan nan nan nan nan nan nan nan nan nan nan nan nan nan nan nan nan nan nan nan nan nan nan nan nan nan nan nan nan nan nan nan nan nan nan nan
nan nan nan nan nan nan nan nan nan nan nan nan nan nan nan nan nan nan nan nan nan nan nan nan nan nan nan nan nan nan nan nan nan nan nan nan nan nan nan nan nan nan nan nan nan nan nan nan nan nan nan nan nan nan nan nan nan nan nan nan nan nan nan nan nan nan nan nan nan nan nan nan nan nan nan nan nan nan nan nan nan nan nan nan nan
nan nan nan nan nan nan nan nan nan nan nan nan nan nan nan nan nan nan nan nan nan nan nan nan nan nan nan nan nan nan nan nan nan nan nan nan nan nan nan nan nan nan nan nan nan nan nan nan nan nan nan nan nan nan nan nan nan nan nan nan nan nan nan nan nan nan nan nan nan nan nan nan nan nan nan nan nan nan nan nan nan nan nan nan nan
nan nan nan nan nan nan nan nan nan nan nan nan nan nan nan nan nan nan nan nan nan nan nan nan nan nan nan nan nan nan nan nan nan nan nan nan nan nan nan nan nan nan nan nan nan nan nan nan nan nan nan nan nan nan nan nan nan nan nan nan nan nan nan nan nan nan nan nan nan nan nan nan nan nan nan nan nan nan nan nan nan nan nan nan nan
nan nan nan nan nan nan nan nan nan nan nan nan nan nan nan nan nan nan nan nan nan nan nan nan nan nan nan nan nan nan nan nan nan nan nan nan nan nan nan nan nan nan nan nan nan nan nan nan nan nan nan nan nan nan nan nan nan nan nan nan nan nan nan nan nan nan nan nan nan nan nan nan nan nan nan nan nan nan nan nan nan nan nan nan nan
nan nan nan nan nan nan nan nan nan nan nan nan nan nan nan nan nan nan nan nan nan nan nan nan nan nan nan nan nan nan nan nan nan nan nan nan nan nan nan nan nan nan nan nan nan nan nan nan nan nan nan nan nan nan nan nan nan nan nan nan nan nan nan nan nan nan nan nan nan nan nan nan nan nan nan nan nan nan nan nan nan nan nan nan nan
nan nan nan nan nan nan nan nan nan nan nan nan nan nan nan nan nan nan nan nan nan nan nan nan nan nan nan nan nan nan nan nan nan nan nan nan nan nan nan nan nan nan nan nan nan nan nan nan nan nan nan nan nan nan nan nan nan nan nan nan nan nan nan nan nan nan nan nan nan nan nan nan nan nan nan nan nan nan nan nan nan nan nan nan nan
nan nan nan nan nan nan nan nan nan nan nan nan nan nan nan nan nan nan nan nan nan nan nan nan nan nan nan nan nan nan nan nan nan nan nan nan nan nan nan nan nan nan nan nan nan nan nan nan nan nan nan nan nan nan nan nan nan nan nan nan nan nan nan nan nan nan nan nan nan nan nan nan nan nan nan nan nan nan nan nan nan nan nan nan nan
nan nan nan nan nan nan nan nan nan nan nan nan nan nan nan nan nan nan nan nan nan nan nan nan nan nan nan nan nan nan nan nan nan nan nan nan nan nan nan nan nan nan nan nan nan nan nan nan nan nan nan nan nan nan nan nan nan nan nan nan nan nan nan nan nan nan nan nan nan nan nan nan nan nan nan nan nan nan nan nan nan nan nan nan nan
nan nan nan nan nan nan nan nan nan nan nan nan nan nan nan nan nan nan nan nan nan nan nan nan nan nan nan nan nan nan nan nan nan nan nan nan nan nan nan nan nan nan nan nan nan nan nan nan nan nan nan nan nan nan nan nan nan nan nan nan nan nan nan nan nan nan nan nan nan nan nan nan nan nan nan nan nan nan nan nan nan nan nan nan nan